This is the latest recevied weather packets stored in our database for station/object S55YIZ-7. If no packets are shown the sender has not sent any weather packets the latest 1 day(s).
| Time | Temp. | Humidity | Pressure | Rain* | Wind** | Luminosity | Snow |
|---|---|---|---|---|---|---|---|
| 1778050467 | 14.44° C | 100% | 1013.5 hPa | - | - | - | - |
| 1778049567 | 14.44° C | 100% | 1013.5 hPa | - | - | - | - |
| 1778048667 | 14.44° C | 100% | 1013 hPa | - | - | - | - |
| 1778047767 | 15° C | 100% | 1013 hPa | - | - | - | - |
| 1778045966 | 16.11° C | 100% | 1013.1 hPa | - | - | - | - |
| 1778044174 | 16.67° C | 100% | 1012.7 hPa | - | - | - | - |
| 1778042374 | 15.56° C | 100% | 1012.8 hPa | - | - | - | - |
| 1778041478 | 15.56° C | 100% | 1013 hPa | - | - | - | - |
| 1778040574 | 15.56° C | 100% | 1012.9 hPa | - | - | - | - |
| 1778039674 | 15.56° C | 100% | 1013 hPa | - | - | - | - |
| 1778038778 | 15.56° C | 100% | 1013 hPa | - | - | - | - |
| 1778036077 | 15.56° C | 100% | 1013.1 hPa | - | - | - | - |
| 1778035177 | 15° C | 100% | 1013.3 hPa | - | - | - | - |
| 1778034277 | 15° C | 100% | 1013.5 hPa | - | - | - | - |
| 1778033377 | 15° C | 100% | 1013.5 hPa | - | - | - | - |
| 1778032473 | 15° C | 100% | 1013.4 hPa | - | - | - | - |
| 1778031573 | 15.56° C | 100% | 1013.9 hPa | - | - | - | - |
| 1778030672 | 15° C | 100% | 1013.8 hPa | - | - | - | - |
| 1778029776 | 15° C | 100% | 1013.6 hPa | - | - | - | - |
| 1778028879 | 15° C | 100% | 1013.5 hPa | - | - | - | - |
| 1778027071 | 15° C | 100% | 1013.6 hPa | - | - | - | - |
| 1778022570 | 15° C | 100% | 1014.2 hPa | - | - | - | - |
| 1778020774 | 15° C | 100% | 1014.3 hPa | - | - | - | - |
| 1778017169 | 14.44° C | 100% | 1014.3 hPa | - | - | - | - |
| 1778016269 | 15° C | 100% | 1014.4 hPa | - | - | - | - |
* Rain since midnight (hover to see other rain measurements)
** Current wind speed in m/s (hover to see current wind gust speed)